Theta_e
366 366 365 364 363 362 362 361 359 359 359 356 354 356 355 356 356 353 351 351 350 348 349 350 349 348 344 345 345 345 344 345 344 342 343 343 342 341 340 339 340 341
367 366 366 366 364 364 364 362 362 360 359 359 358 356 357 356 354 353 351 349 349 348 350 348 350 348 346 343 344 343 343 344 343 342 342 343 344 343 341 342 341 341
367 365 365 364 361 363 361 362 363 361 358 360 359 358 356 356 355 354 353 350 349 348 348 349 349 347 345 344 345 343 341 343 342 340 343 343 343 343 344 338 340 340
368 367 365 364 362 362 362 361 362 362 360 357 356 356 355 356 355 352 352 351 350 349 348 347 347 346 345 344 344 343 343 343 343 343 342 343 344 344 343 343 341 340
369 368 366 365 364 363 363 361 359 360 358 356 356 357 358 357 356 353 352 351 351 348 348 347 346 346 346 345 346 344 342 341 342 343 342 341 343 343 342 342 341 340
371 370 369 366 365 364 361 360 360 358 357 353 357 356 357 358 356 353 353 351 348 346 346 346 346 344 344 345 346 345 343 339 340 342 340 340 340 340 339 338 339 339
368 369 368 367 365 364 363 362 360 360 357 355 358 357 357 356 356 354 353 351 349 347 346 347 348 345 344 344 346 345 346 344 342 341 340 340 341 340 339 339 340 339
370 370 370 369 366 364 363 361 362 361 360 359 355 358 358 355 356 352 352 350 348 348 347 347 347 347 342 344 344 344 343 341 341 340 340 339 340 340 340 340 341 340
371 371 370 369 366 363 359 359 359 361 361 359 355 355 358 357 355 352 352 351 349 348 349 347 348 346 346 345 344 344 342 340 341 341 341 340 339 340 339 340 340 340
371 371 369 366 363 362 357 355 357 361 362 359 356 353 356 357 356 353 352 352 349 347 347 347 347 346 345 344 342 342 342 342 342 342 341 341 340 340 340 339 338 338
368 367 367 363 361 358 357 355 356 358 360 358 356 352 357 355 354 353 352 352 348 346 347 347 346 347 346 342 340 340 340 340 342 342 342 341 341 341 341 341 338 337
368 367 364 362 360 355 356 355 356 359 357 355 355 354 356 352 352 351 351 352 351 349 349 351 350 348 344 341 340 339 340 341 342 342 341 341 341 341 341 340 339 338
368 367 365 363 360 360 360 352 350 356 351 348 353 356 354 353 353 352 354 354 353 353 352 351 349 345 343 342 342 341 342 343 342 341 341 341 341 340 339 340 340 339
369 367 366 363 362 362 361 357 359 357 356 354 356 356 355 356 355 355 356 356 353 353 351 350 347 344 342 342 343 343 343 343 343 342 340 341 341 342 340 338 339 337
369 368 366 365 362 363 361 361 360 359 355 358 359 357 356 355 355 354 353 351 350 347 346 345 343 340 340 340 341 343 344 343 343 342 341 340 342 341 341 341 340 339
370 367 366 366 362 362 361 361 360 360 359 359 357 356 355 353 352 352 349 346 344 345 343 341 340 340 336 329 335 345 346 345 343 342 342 341 341 342 340 339 337 336
370 368 366 366 366 365 364 361 360 360 359 358 357 357 354 352 351 349 344 342 340 338 338 341 340 338 329 328 330 334 345 345 343 343 343 342 340 342 340 337 337 339
365 364 363 364 363 362 361 361 360 358 358 358 357 357 356 354 350 348 345 342 339 340 342 342 341 330 326 327 329 330 335 346 345 343 341 341 342 340 340 338 337 338
361 360 360 360 360 360 360 359 357 356 355 353 354 355 354 352 350 346 343 339 339 340 339 339 339 329 326 326 327 328 329 337 343 343 341 342 341 341 339 340 341 341
359 358 358 358 359 359 358 357 357 355 354 354 354 354 352 350 349 346 343 342 342 342 341 340 341 329 325 324 325 326 328 334 343 342 343 342 342 341 341 342 342 343
359 358 357 357 358 358 358 357 357 356 355 354 351 351 350 349 346 344 343 343 342 342 341 340 341 325 323 323 323 323 325 331 342 343 342 341 343 343 343 343 341 341
358 358 358 356 355 355 355 355 355 355 355 354 352 350 350 349 348 344 341 341 343 343 342 341 340 321 322 322 321 321 323 336 340 340 340 340 342 343 342 342 342 342
359 357 355 354 353 353 353 352 354 354 354 354 351 350 348 347 346 344 345 345 345 344 342 341 341 327 319 318 318 318 324 337 338 339 341 341 342 344 344 344 344 346
360 356 353 351 352 352 352 353 352 353 350 351 349 347 345 345 345 344 343 344 342 342 341 340 341 329 315 315 316 317 325 338 339 341 340 341 342 343 346 347 346 344
360 357 354 352 352 351 350 350 349 350 350 350 348 348 346 347 344 343 343 344 341 340 337 339 342 330 314 315 315 314 327 342 342 339 338 341 338 338 338 342 343 342
360 359 358 355 353 353 352 351 352 351 349 348 348 348 347 347 345 345 343 342 342 343 344 342 341 342 333 314 314 313 318 340 341 340 336 335 335 335 336 340 341 341
Wind_Speed
12 11 10 10 9 8 8 9 8 8 7 6 6 6 6 6 6 6 6 6 6 6 6 6 6 5 5 4 4 3 2 3 3 3 5 4 3 3 3 3 4 3
14 12 10 9 8 8 8 8 8 7 7 7 6 6 6 7 7 7 7 7 7 7 7 7 6 6 6 5 5 4 4 4 4 4 3 5 4 5 5 5 5 5
14 13 13 12 11 12 12 10 8 8 8 8 8 7 7 8 8 8 7 8 7 8 8 7 8 7 7 6 6 6 5 5 4 5 5 5 5 5 5 6 5 7
15 14 13 13 12 12 11 10 9 9 9 8 9 8 7 8 8 9 8 9 7 8 8 8 8 8 8 7 6 6 6 6 5 5 5 5 5 5 6 5 6 6
16 15 14 13 12 12 11 11 12 11 10 8 8 7 7 8 8 9 8 8 8 8 8 9 9 9 8 6 6 5 6 6 6 5 5 5 6 6 6 6 6 7
15 14 14 14 13 12 12 12 12 11 10 10 8 8 8 9 9 9 9 10 10 10 10 10 10 10 9 8 6 5 5 6 6 6 7 7 7 7 7 7 7 7
16 16 17 15 15 14 12 11 10 10 10 9 9 8 9 9 9 9 10 10 11 10 10 9 9 9 9 10 9 8 6 6 6 5 6 6 7 8 8 8 7 7
18 17 16 15 15 13 12 11 10 10 10 9 11 10 10 10 11 10 10 12 13 12 11 11 11 10 11 9 10 10 9 8 8 8 8 8 7 7 8 7 7 8
17 17 16 16 16 14 14 13 12 11 10 9 10 12 11 11 12 12 13 14 13 12 12 12 11 11 8 7 7 8 10 10 9 9 9 9 9 9 8 8 9 8
17 16 18 18 16 13 15 14 13 13 12 13 14 13 13 12 13 14 13 13 14 13 13 12 12 11 10 8 8 10 9 8 8 8 8 8 8 8 8 8 9 9
19 18 18 17 16 15 17 17 16 16 15 16 15 15 16 14 14 14 14 15 14 13 12 12 11 11 11 10 10 10 9 9 8 8 9 8 8 8 8 8 8 8
19 18 18 18 18 17 18 18 19 19 18 16 17 18 17 16 18 15 13 13 12 12 12 12 11 11 11 10 11 11 10 10 9 9 9 9 9 9 9 8 6 7
19 17 17 19 18 17 18 19 20 20 20 19 18 19 18 15 12 11 9 13 13 13 13 12 11 11 10 11 12 11 11 10 10 10 9 9 9 9 8 7 7 6
17 17 18 18 17 17 17 17 17 18 17 17 17 17 17 14 13 13 13 13 13 12 12 11 12 12 12 12 12 12 11 11 10 10 10 8 8 7 7 6 7 8
15 16 17 17 18 17 17 18 18 18 16 15 14 14 11 12 13 15 14 14 13 13 13 12 12 12 11 12 12 13 12 11 10 10 9 8 7 7 5 6 6 7
15 15 15 16 17 18 18 18 17 16 15 15 15 14 11 11 11 12 14 15 14 13 13 12 12 11 12 15 13 11 12 10 10 10 10 9 8 6 6 6 6 5
12 12 15 15 14 13 12 14 14 12 13 14 13 12 12 11 11 13 15 14 14 14 14 13 12 10 15 15 14 13 11 10 10 10 10 9 9 7 6 8 6 6
13 14 15 13 12 13 13 14 12 11 10 10 9 10 9 10 11 13 13 13 12 13 14 13 12 12 15 15 15 14 12 9 9 9 9 8 7 7 6 7 7 6
15 16 15 14 14 13 12 12 12 11 11 11 10 8 8 10 11 12 12 12 12 13 14 13 12 14 16 16 15 15 14 12 9 9 8 6 6 7 8 7 6 5
16 16 15 15 15 14 13 14 13 13 11 10 8 8 9 10 11 12 11 12 11 12 12 12 12 14 18 17 16 15 14 11 9 9 7 6 7 8 7 7 6 5
14 15 15 14 13 14 13 13 13 11 11 10 10 10 10 10 11 12 11 11 11 10 10 10 10 13 17 17 16 17 15 10 7 6 5 6 7 7 7 6 7 8
14 14 14 14 14 15 14 13 13 12 11 10 10 10 9 9 9 10 11 11 11 10 11 10 7 13 15 16 16 13 12 7 6 6 7 7 8 9 8 8 9 9
14 14 13 12 13 12 13 14 13 12 11 10 11 11 11 11 12 11 9 11 11 12 13 13 8 11 14 14 14 15 11 6 8 8 10 9 8 8 8 7 8 7
14 14 13 13 12 12 11 11 11 11 11 9 9 11 12 12 11 11 11 11 12 13 13 12 10 11 15 16 17 17 13 10 10 10 10 8 5 6 6 6 5 6
14 15 14 14 13 12 12 11 11 10 9 7 9 9 8 8 8 7 7 6 9 10 7 9 8 9 14 15 16 16 14 10 10 9 8 2 1 4 7 5 5 5
13 14 14 14 14 14 13 12 10 9 8 7 8 8 8 8 8 8 8 8 7 7 5 9 12 11 14 16 15 16 17 9 8 7 6 6 7 9 10 6 6 5
Wind_Direction
196 197 198 200 204 206 203 199 196 195 198 201 193 191 179 188 192 182 188 190 194 202 190 196 192 195 193 192 188 200 244 226 259 223 212 222 236 259 272 272 282 287
196 195 197 198 198 201 204 203 196 196 191 198 198 177 181 194 193 189 190 201 196 192 194 193 190 193 193 194 186 201 206 220 229 239 244 246 253 263 260 267 276 274
196 197 195 198 198 198 202 197 192 191 193 191 192 187 179 188 192 191 189 197 193 193 191 194 189 192 194 201 187 198 201 208 227 250 236 233 245 251 262 270 265 241
198 197 197 198 199 196 197 194 189 190 195 193 193 190 180 179 185 183 189 191 193 197 192 194 195 189 193 196 198 202 205 209 218 233 243 254 241 247 260 255 250 265
195 196 197 198 199 198 193 194 194 188 197 187 190 184 176 183 186 186 189 186 196 198 197 195 195 196 184 191 190 206 211 213 213 226 248 256 260 251 247 248 250 254
193 195 195 196 196 195 194 194 196 192 191 194 187 185 182 185 187 188 184 193 197 203 201 198 196 196 190 183 183 188 209 221 221 210 223 231 243 250 251 246 244 244
191 193 194 193 192 191 192 189 187 193 188 191 181 185 186 188 192 188 188 197 201 202 201 198 197 195 192 188 180 176 192 223 237 234 231 233 231 241 246 261 267 258
189 189 190 189 188 186 186 184 184 183 182 185 178 184 187 188 190 193 193 199 205 200 200 200 203 203 200 196 183 177 184 199 216 218 228 237 243 240 242 249 249 251
188 187 185 184 183 183 186 185 187 182 179 175 179 191 186 187 189 194 198 198 200 200 197 199 200 203 209 204 198 187 185 197 206 213 216 222 225 233 240 241 243 245
188 186 185 181 180 179 182 186 182 180 175 177 183 193 182 187 188 198 198 193 193 196 198 197 198 197 200 207 213 208 196 190 204 216 222 224 229 237 238 234 242 246
187 186 185 186 182 182 181 182 184 187 182 186 187 190 182 183 189 196 196 193 190 189 192 194 193 191 193 201 215 221 205 195 201 214 222 228 233 235 240 245 247 252
185 183 184 181 182 183 181 185 188 186 185 191 192 189 185 188 191 194 192 187 181 182 186 186 183 187 196 206 219 221 211 200 201 210 219 224 227 229 235 240 247 254
183 177 177 180 180 179 184 191 190 188 191 192 193 191 188 193 186 184 172 176 174 176 183 185 185 192 196 207 221 223 214 205 203 207 215 222 224 227 233 229 236 241
183 183 179 177 178 175 183 190 185 192 191 190 192 192 194 188 179 176 173 175 176 178 182 183 189 193 195 208 216 218 215 209 205 207 210 216 219 222 221 230 238 247
181 181 183 175 178 173 177 185 189 191 191 190 191 195 191 184 185 181 178 180 179 185 188 189 194 196 196 205 211 214 216 211 206 208 212 218 224 219 213 218 228 243
174 180 184 175 178 178 183 186 187 184 185 190 194 195 188 181 183 183 182 180 180 184 189 193 197 197 196 202 208 209 209 211 207 207 209 215 222 222 220 227 232 239
163 158 174 175 177 178 181 181 184 183 187 192 191 189 189 183 182 184 188 186 184 186 192 196 197 197 188 195 206 213 212 211 212 208 207 214 223 221 223 228 230 211
150 160 169 173 174 178 183 187 187 189 193 193 191 186 181 179 184 186 185 184 186 190 194 198 200 191 181 185 196 199 205 212 214 216 212 210 210 220 219 232 231 229
152 163 172 177 184 186 186 189 193 196 199 199 201 190 180 187 188 184 185 186 189 195 201 202 208 180 174 182 193 198 202 213 221 222 215 199 207 216 228 227 225 220
159 163 173 182 188 192 191 194 196 199 201 201 198 187 186 191 191 189 187 191 192 197 201 204 211 169 175 181 193 195 199 204 224 233 226 221 223 228 225 226 219 217
159 163 171 184 193 195 198 202 203 203 202 202 205 203 196 194 193 192 192 194 197 201 204 208 218 163 175 179 186 190 191 187 209 219 223 226 227 228 229 221 230 231
162 169 175 192 201 206 206 208 208 210 210 207 213 216 213 204 198 200 197 201 203 201 212 211 201 154 175 178 179 176 161 180 198 208 215 220 222 225 226 228 232 241
157 164 181 191 200 201 206 210 210 211 213 214 219 221 218 218 225 221 209 209 205 216 224 228 218 158 163 168 161 165 168 184 203 212 221 221 229 224 222 237 242 225
156 157 176 189 194 197 200 205 209 211 215 216 224 224 224 226 226 226 226 228 224 225 223 224 225 158 168 168 170 171 174 193 205 215 221 223 241 268 236 200 211 217
168 166 175 186 188 191 194 197 201 199 202 203 210 218 225 226 230 232 229 227 233 232 206 206 220 176 182 178 177 175 185 204 210 218 223 155 256 275 266 229 208 182
174 172 175 178 183 187 189 191 192 189 192 193 204 209 207 208 216 224 223 216 200 218 184 199 221 222 185 187 182 182 191 202 209 208 212 193 199 220 227 196 196 194